Regional Weather Roundup
Issued by NWS

Home | Current Version | Previous Version | Text Only | Print | Product List | Glossary Off
Versions: 1 2 3 4 5 6 7 8 9 10 11 12 13 14 15 16 17 18 19 20 21 22 23 24 25 26 27 28 29 30 31 32 33 34 35 36 37 38 39 40 41 42 43 44 45 46 47 48 49 50

000
ASUS45 KPSR 020600
RWRAZ

PRELIMINARY ARIZONA REGIONAL HOURLY WEATHER ROUNDUP
NATIONAL WEATHER SERVICE PHOENIX AZ
1100 PM MST WED OCT 01 2014

NOTE: FAIR INDICATES FEW OR NO CLOUDS BELOW 12,000 FEET WITH NO
SIGNIFICANT WEATHER AND/OR OBSTRUCTIONS TO VISIBILITY.

AZZ001>003-036-020700-
NORTHWEST ARIZONA

CITY           SKY/WX    TMP DP  RH WIND       PRES   REMARKS
KINGMAN        CLEAR     59  35  40 NE9       30.06R
6HR MIN TEMP:  55; 6HR MAX TEMP:  76;

$$

AZZ004>008-015-016-018-020700-
NORTH CENTRAL ARIZONA

CITY           SKY/WX    TMP DP  RH WIND       PRES   REMARKS
GRAND CANYON   CLEAR     34  30  85 CALM      30.19R
6HR MIN TEMP:  33; 6HR MAX TEMP:  62;

PRESCOTT       CLEAR     53  35  50 NW8       30.11R
6HR MIN TEMP:  53; 6HR MAX TEMP:  73;

FLAGSTAFF      CLEAR     41  32  70 W5        30.19R
6HR MIN TEMP:  41; 6HR MAX TEMP:  61;

PAYSON         CLEAR     55  41  58 N3        30.10R
PAGE           CLEAR     57  23  26 NW7       30.12R
6HR MIN TEMP:  57; 6HR MAX TEMP:  72;

$$

AZZ009>014-017-020700-
NORTHEAST ARIZONA

CITY           SKY/WX    TMP DP  RH WIND       PRES   REMARKS
WINSLOW        NOT AVBL
SAINT JOHNS    MOCLDY    60  36  40 W13       30.07R
6HR MIN TEMP:  58; 6HR MAX TEMP:  69; 6HR PCP: TRACE;

WINDOW ROCK    CLEAR     51  35  54 N9        30.13R
6HR MIN TEMP:  47; 6HR MAX TEMP:  65;

SHOW LOW       PTCLDY    50  37  62 SW3       30.16R
$$

AZZ023-020700-
GREATER PHOENIX AREA

CITY           SKY/WX    TMP DP  RH WIND       PRES   REMARKS
PHOENIX        CLEAR     78  49  35 E5        29.83R
6HR MIN TEMP:  77; 6HR MAX TEMP:  89;

LUKE AFB       CLEAR     73  51  46 N3        29.84R
6HR MIN TEMP:  73; 6HR MAX TEMP:  89;

DEER VALLEY    CLEAR     74  47  38 NE5       29.86R
6HR MIN TEMP:  71; 6HR MAX TEMP:  86;

SCOTTSDALE     CLEAR     76  46  34 CALM      29.87S
6HR MIN TEMP:  76; 6HR MAX TEMP:  87;

MESA-GATEWAY   CLEAR     70  55  60 CALM      29.87S
$$

AZZ027-028-020700-
SOUTHWEST MARICOPA COUNTY AND PINAL COUNTY

CITY           SKY/WX    TMP DP  RH WIND       PRES   REMARKS
CASA GRANDE    CLEAR     66  43  42 CALM      29.87R
6HR MIN TEMP:  66; 6HR MAX TEMP:  88;

$$

AZZ503-504-507>509-020700-
SOUTHEAST ARIZONA

CITY           SKY/WX    TMP DP  RH WIND       PRES   REMARKS
TUCSON         CLEAR     70  38  31 SW5       29.95R
6HR MIN TEMP:  70; 6HR MAX TEMP:  88;

DAVIS-MONTHAN  CLEAR     67  39  36 S7        29.93R
6HR MIN TEMP:  67; 6HR MAX TEMP:  86;

NOGALES        CLEAR     56  46  69 NE3       30.01R
6HR MIN TEMP:  56; 6HR MAX TEMP:  79;

SIERRA VISTA   CLEAR     61  43  51 W10       30.05R
SAFFORD        CLEAR     66  34  30 NW6       29.92R
6HR MIN TEMP:  66; 6HR MAX TEMP:  84;

$$

AZZ020-021-025-026-031-020700-
SOUTHWEST ARIZONA

CITY           SKY/WX    TMP DP  RH WIND       PRES   REMARKS
YUMA           CLEAR     82  39  21 W6        29.81R
6HR MIN TEMP:  82; 6HR MAX TEMP:  96;

$$

CAZ031-033-041-043-047-048-061-020700-
SOUTHERN CALIFORNIA

CITY           SKY/WX    TMP DP  RH WIND       PRES   REMARKS
DOWNTOWN L.A.  CLEAR     67  62  84 CALM      29.87R
6HR MIN TEMP:  67; 6HR MAX TEMP:  75;

L.A. AIRPORT   PTCLDY    67  63  87 CALM      29.88R
6HR MIN TEMP:  67; 6HR MAX TEMP:  71;

SAN DIEGO      PTCLDY    69  62  78 N3        29.88R
6HR MIN TEMP:  69; 6HR MAX TEMP:  74;

BURBANK        CLEAR     69  60  73 E5        29.88R
6HR MIN TEMP:  69; 6HR MAX TEMP:  81;

ONTARIO        CLEAR     69  58  67 W5        29.89R
6HR MIN TEMP:  68; 6HR MAX TEMP:  86;

RIVERSIDE      CLEAR     70  59  68 CALM      29.90R
6HR MIN TEMP:  70; 6HR MAX TEMP:  85;

PALM SPRINGS   CLEAR     88  32  13 NW8       29.88R
6HR MIN TEMP:  87; 6HR MAX TEMP:  98;

EL CENTRO NAS  CLEAR     77  39  25 SW6       29.80R
6HR MIN TEMP:  74; 6HR MAX TEMP:  95;

IMPERIAL       CLEAR     75  46  35 CALM      29.80R
6HR MIN TEMP:  74; 6HR MAX TEMP:  95;

BLYTHE         CLEAR     83  32  16 NW15      29.84R
6HR MIN TEMP:  81; 6HR MAX TEMP:  93;

$$

NVZ020-UTZ003-020700-
SOUTHERN NEVADA-UTAH

CITY           SKY/WX    TMP DP  RH WIND       PRES   REMARKS
LAS VEGAS      NOT AVBL
SALT LAKE CITY CLEAR     45  36  70 SE9       30.20F
6HR MIN TEMP:  45; 6HR MAX TEMP:  56;

$$

NMZ009-TXZ055-020700-
NEW MEXICO-WEST TEXAS

CITY           SKY/WX    TMP DP  RH WIND       PRES   REMARKS
ALBUQUERQUE    PTCLDY    63  36  36 N12       30.01R
6HR MIN TEMP:  63; 6HR MAX TEMP:  76;

EL PASO        CLEAR     70  33  25 CALM      29.93R
6HR MIN TEMP:  69; 6HR MAX TEMP:  83;

$$


........................KEY........................
SKY/WX - SKY CONDITION/WEATHER
TMP    - TEMPERATURE IN FAHRENHEIT
DP     - DEW POINT IN FAHRENHEIT
RH     - RELATIVE HUMIDITY IN PERCENT
WIND   - DIRECTION AND SPEED IN MILES PER HOUR (MPH)
VRB    - VARIABLE WIND DIRECTION
PRES   - MEAN SEA LEVEL PRESSURE IN INCHES OF MERCURY
         F - FALLING PRESSURE   R - RISING PRESSURE
         S - STEADY PRESSURE
VSB    - VISIBILITY IN MILES
HX     - HEAT INDEX IN FAHRENHEIT
WCI    - WIND CHILL INDEX IN FAHRENHEIT
TC     - TEMPERATURE IN CELSIUS WHICH IS ALSO KNOWN AS
         TEMPERATURE IN CENTIGRADE
AFB    - AIR FORCE BASE
         LUKE AFB IS LUKE AIR FORCE BASE
         DAVIS-MONTHAN IS DAVIS-MONTHAN AIR FORCE BASE
NAS    - NAVAL AIR STATION
         EL CENTRO NAS IS EL CENTRO NAVAL AIR STATION
N/A    - NOT AVAILABLE



USA.gov is the U.S. government's official web portal to all federal, state and local government web resources and services.